Time,TemperatureF,DewpointF,PressureIn,WindDirection,WindDirectionDegrees,WindSpeedMPH,WindSpeedGustMPH,Humidity,HourlyPrecipIn,Conditions,Clouds,dailyrainin,SoftwareType,DateUTC
2013-02-12 00:00:00,43.7,27.7,30.01,West,273,0.0,0.0,53,0.00,,,0.00,Wunderground v.1.15,2013-02-12 05:00:00,
2013-02-12 00:05:00,43.6,27.1,30.01,WSW,252,0.0,0.0,52,0.00,,,0.00,Wunderground v.1.15,2013-02-12 05:05:00,
2013-02-12 00:10:00,43.5,27.9,30.00,WSW,248,0.0,0.0,54,0.00,,,0.00,Wunderground v.1.15,2013-02-12 05:10:00,
2013-02-12 00:15:00,43.3,28.2,30.00,WSW,245,0.0,2.0,55,0.00,,,0.00,Wunderground v.1.15,2013-02-12 05:15:00,
2013-02-12 00:20:00,43.2,29.0,30.00,West,262,1.0,1.0,57,0.00,,,0.00,Wunderground v.1.15,2013-02-12 05:20:00,
2013-02-12 00:30:00,43.0,28.8,30.01,West,277,2.0,2.0,57,0.00,,,0.00,Wunderground v.1.15,2013-02-12 05:30:00,
2013-02-12 06:10:00,36.9,26.2,30.02,West,274,3.0,4.0,65,0.00,,,0.00,Wunderground v.1.15,2013-02-12 11:10:00,
2013-02-12 06:15:00,36.9,25.9,30.02,West,269,3.0,4.0,64,0.00,,,0.00,Wunderground v.1.15,2013-02-12 11:15:00,
2013-02-12 06:20:00,36.9,26.2,30.03,West,277,4.0,5.0,65,0.00,,,0.00,Wunderground v.1.15,2013-02-12 11:20:00,
2013-02-12 06:30:00,36.5,25.8,30.03,WNW,288,4.0,4.0,65,0.00,,,0.00,Wunderground v.1.15,2013-02-12 11:30:00,
2013-02-12 06:35:00,36.4,26.1,30.03,West,274,3.0,5.0,66,0.00,,,0.00,Wunderground v.1.15,2013-02-12 11:35:00,
2013-02-12 06:45:00,36.1,25.8,30.04,West,274,4.0,4.0,66,0.00,,,0.00,Wunderground v.1.15,2013-02-12 11:45:00,
2013-02-12 06:50:00,36.0,25.4,30.04,West,276,4.0,5.0,65,0.00,,,0.00,Wunderground v.1.15,2013-02-12 11:50:00,
2013-02-12 06:55:00,36.0,26.1,30.04,West,277,3.0,5.0,67,0.00,,,0.00,Wunderground v.1.15,2013-02-12 11:55:00,
2013-02-12 07:00:00,36.0,25.7,30.03,West,271,4.0,5.0,66,0.00,,,0.00,Wunderground v.1.15,2013-02-12 12:00:00,
2013-02-12 07:05:00,35.9,26.4,30.03,West,277,4.0,5.0,68,0.00,,,0.00,Wunderground v.1.15,2013-02-12 12:05:00,
2013-02-12 07:10:00,35.8,25.9,30.03,West,269,3.0,4.0,67,0.00,,,0.00,Wunderground v.1.15,2013-02-12 12:10:00,
2013-02-12 07:15:00,35.7,26.2,30.03,West,276,3.0,5.0,68,0.00,,,0.00,Wunderground v.1.15,2013-02-12 12:15:00,
2013-02-12 07:25:00,35.6,26.1,30.04,West,271,4.0,5.0,68,0.00,,,0.00,Wunderground v.1.15,2013-02-12 12:25:00,
2013-02-12 07:30:00,35.7,26.2,30.04,West,262,5.0,5.0,68,0.00,,,0.00,Wunderground v.1.15,2013-02-12 12:30:00,
2013-02-12 07:35:00,35.5,26.3,30.04,WSW,250,5.0,5.0,69,0.00,,,0.00,Wunderground v.1.15,2013-02-12 12:35:00,
2013-02-12 07:40:00,35.5,25.6,30.05,WSW,248,4.0,4.0,67,0.00,,,0.00,Wunderground v.1.15,2013-02-12 12:40:00,
2013-02-12 07:45:00,35.6,26.4,30.06,WSW,252,3.0,4.0,69,0.00,,,0.00,Wunderground v.1.15,2013-02-12 12:45:00,
2013-02-12 07:50:00,35.5,26.3,30.05,WSW,255,3.0,3.0,69,0.00,,,0.00,Wunderground v.1.15,2013-02-12 12:50:00,
2013-02-12 07:55:00,35.5,26.3,30.05,WSW,247,3.0,5.0,69,0.00,,,0.00,Wunderground v.1.15,2013-02-12 12:55:00,
2013-02-12 08:00:00,35.7,26.2,30.05,West,266,2.0,4.0,68,0.00,,,0.00,Wunderground v.1.15,2013-02-12 13:00:00,
2013-02-12 08:05:00,35.9,26.0,30.06,West,264,3.0,4.0,67,0.00,,,0.00,Wunderground v.1.15,2013-02-12 13:05:00,
2013-02-12 08:10:00,35.9,26.4,30.06,WSW,247,3.0,3.0,68,0.00,,,0.00,Wunderground v.1.15,2013-02-12 13:10:00,
2013-02-12 08:15:00,36.3,26.7,30.06,SW,236,3.0,4.0,68,0.00,,,0.00,Wunderground v.1.15,2013-02-12 13:15:00,
2013-02-12 08:20:00,36.5,26.6,30.06,West,263,3.0,4.0,67,0.00,,,0.00,Wunderground v.1.15,2013-02-12 13:20:00,
2013-02-12 08:24:00,36.5,26.6,30.07,West,271,3.0,4.0,67,0.00,,,0.00,Wunderground v.1.15,2013-02-12 13:24:00,
2013-02-12 08:30:00,36.3,26.0,30.07,WSW,256,2.0,2.0,66,0.00,,,0.00,Wunderground v.1.15,2013-02-12 13:30:00,
2013-02-12 08:35:00,36.2,26.6,30.08,NW,307,1.0,2.0,68,0.00,,,0.00,Wunderground v.1.15,2013-02-12 13:35:00,
2013-02-12 08:40:00,36.2,27.0,30.09,WSW,239,2.0,3.0,69,0.00,,,0.00,Wunderground v.1.15,2013-02-12 13:40:00,
2013-02-12 08:44:00,36.1,26.9,30.09,WNW,287,2.0,3.0,69,0.00,,,0.00,Wunderground v.1.15,2013-02-12 13:44:00,
2013-02-12 08:50:00,36.3,26.7,30.09,West,267,3.0,5.0,68,0.00,,,0.00,Wunderground v.1.15,2013-02-12 13:50:00,
2013-02-12 08:55:00,36.5,26.9,30.08,West,266,2.0,5.0,68,0.00,,,0.00,Wunderground v.1.15,2013-02-12 13:55:00,
2013-02-12 09:05:00,37.2,26.9,30.08,SW,231,2.0,3.0,66,0.00,,,0.00,Wunderground v.1.15,2013-02-12 14:05:00,
2013-02-12 09:09:00,37.3,26.6,30.08,WNW,284,3.0,3.0,65,0.00,,,0.00,Wunderground v.1.15,2013-02-12 14:09:00,
2013-02-12 09:15:00,37.5,26.8,30.08,WSW,243,3.0,4.0,65,0.00,,,0.00,Wunderground v.1.15,2013-02-12 14:15:00,
2013-02-12 09:20:00,37.7,26.6,30.08,West,262,3.0,3.0,64,0.00,,,0.00,Wunderground v.1.15,2013-02-12 14:20:00,
2013-02-12 09:24:00,37.8,26.7,30.09,WSW,245,4.0,4.0,64,0.00,,,0.00,Wunderground v.1.15,2013-02-12 14:24:00,
2013-02-12 09:30:00,38.5,27.4,30.09,SW,232,3.0,5.0,64,0.00,,,0.00,Wunderground v.1.15,2013-02-12 14:30:00,
2013-02-12 09:35:00,39.5,27.9,30.09,WSW,246,3.0,5.0,63,0.00,,,0.00,Wunderground v.1.15,2013-02-12 14:35:00,
2013-02-12 09:40:00,40.2,27.4,30.09,SW,235,3.0,3.0,60,0.00,,,0.00,Wunderground v.1.15,2013-02-12 14:40:00,
2013-02-12 09:45:00,40.8,28.4,30.08,West,271,3.0,3.0,61,0.00,,,0.00,Wunderground v.1.15,2013-02-12 14:45:00,
2013-02-12 09:50:00,41.4,27.7,30.08,WSW,252,3.0,3.0,58,0.00,,,0.00,Wunderground v.1.15,2013-02-12 14:50:00,
2013-02-12 09:55:00,41.8,28.1,30.08,SW,236,2.0,3.0,58,0.00,,,0.00,Wunderground v.1.15,2013-02-12 14:55:00,
2013-02-12 09:59:00,42.2,27.6,30.08,WSW,255,2.0,2.0,56,0.00,,,0.00,Wunderground v.1.15,2013-02-12 14:59:00,
2013-02-12 10:05:00,42.4,27.8,30.08,West,262,2.0,3.0,56,0.00,,,0.00,Wunderground v.1.15,2013-02-12 15:05:00,
2013-02-12 10:10:00,42.9,28.7,30.08,West,269,2.0,2.0,57,0.00,,,0.00,Wunderground v.1.15,2013-02-12 15:10:00,
2013-02-12 10:15:00,43.0,27.5,30.07,WSW,256,2.0,5.0,54,0.00,,,0.00,Wunderground v.1.15,2013-02-12 15:15:00,
2013-02-12 10:19:00,43.2,27.2,30.07,West,259,2.0,3.0,53,0.00,,,0.00,Wunderground v.1.15,2013-02-12 15:19:00,
2013-02-12 10:25:00,43.6,27.6,30.07,West,280,2.0,3.0,53,0.00,,,0.00,Wunderground v.1.15,2013-02-12 15:25:00,
2013-02-12 10:30:00,43.9,27.4,30.07,WSW,246,2.0,4.0,52,0.00,,,0.00,Wunderground v.1.15,2013-02-12 15:30:00,
2013-02-12 10:34:00,44.2,28.1,30.07,SW,231,2.0,4.0,53,0.00,,,0.00,Wunderground v.1.15,2013-02-12 15:34:00,
2013-02-12 10:40:00,44.5,28.0,30.07,WSW,255,2.0,2.0,52,0.00,,,0.00,Wunderground v.1.15,2013-02-12 15:40:00,
2013-02-12 10:45:00,45.1,28.0,30.07,SSW,212,1.0,2.0,51,0.00,,,0.00,Wunderground v.1.15,2013-02-12 15:45:00,
2013-02-12 10:55:00,45.5,27.9,30.06,WSW,243,2.0,2.0,50,0.00,,,0.00,Wunderground v.1.15,2013-02-12 15:55:00,
2013-02-12 11:00:00,46.0,28.9,30.06,SW,225,1.0,1.0,51,0.00,,,0.00,Wunderground v.1.15,2013-02-12 16:00:00,
2013-02-12 11:05:00,46.2,28.1,30.06,SW,235,1.0,1.0,49,0.00,,,0.00,Wunderground v.1.15,2013-02-12 16:05:00,
2013-02-12 11:10:00,46.2,29.1,30.05,SW,228,2.0,2.0,51,0.00,,,0.00,Wunderground v.1.15,2013-02-12 16:10:00,
2013-02-12 11:15:00,46.6,28.4,30.05,WSW,243,2.0,5.0,49,0.00,,,0.00,Wunderground v.1.15,2013-02-12 16:15:00,
2013-02-12 11:20:00,47.1,28.9,30.05,SSE,167,2.0,2.0,49,0.00,,,0.00,Wunderground v.1.15,2013-02-12 16:20:00,
2013-02-12 11:25:00,47.7,28.9,30.05,WSW,252,2.0,2.0,48,0.00,,,0.00,Wunderground v.1.15,2013-02-12 16:25:00,
2013-02-12 11:30:00,47.7,27.9,30.03,SW,222,2.0,2.0,46,0.00,,,0.00,Wunderground v.1.15,2013-02-12 16:30:00,
2013-02-12 11:35:00,48.1,28.3,30.05,WSW,238,1.0,2.0,46,0.00,,,0.00,Wunderground v.1.15,2013-02-12 16:35:00,
2013-02-12 11:40:00,48.8,27.3,30.06,SSE,163,1.0,2.0,43,0.00,,,0.00,Wunderground v.1.15,2013-02-12 16:40:00,
2013-02-12 11:45:00,48.9,26.8,30.06,ESE,113,1.0,4.0,42,0.00,,,0.00,Wunderground v.1.15,2013-02-12 16:45:00,
2013-02-12 11:50:00,48.8,26.1,30.05,SW,219,2.0,2.0,41,0.00,,,0.00,Wunderground v.1.15,2013-02-12 16:50:00,
2013-02-12 11:55:00,49.4,27.2,30.05,ESE,104,1.0,2.0,42,0.00,,,0.00,Wunderground v.1.15,2013-02-12 16:55:00,
2013-02-12 12:00:00,49.4,27.8,30.05,WSW,239,1.0,1.0,43,0.00,,,0.00,Wunderground v.1.15,2013-02-12 17:00:00,
2013-02-12 12:05:00,49.0,26.3,30.05,SSW,203,0.0,1.0,41,0.00,,,0.00,Wunderground v.1.15,2013-02-12 17:05:00,
2013-02-12 12:10:00,48.6,25.3,30.05,North,6,0.0,0.0,40,0.00,,,0.00,Wunderground v.1.15,2013-02-12 17:10:00,
2013-02-12 12:15:00,48.6,25.3,30.06,South,169,0.0,0.0,40,0.00,,,0.00,Wunderground v.1.15,2013-02-12 17:15:00,
2013-02-12 12:20:00,48.8,26.7,30.06,East,88,0.0,0.0,42,0.00,,,0.00,Wunderground v.1.15,2013-02-12 17:20:00,
2013-02-12 12:25:00,48.9,27.4,30.06,SE,130,0.0,0.0,43,0.00,,,0.00,Wunderground v.1.15,2013-02-12 17:25:00,
2013-02-12 12:30:00,48.8,25.5,30.06,South,169,0.0,0.0,40,0.00,,,0.00,Wunderground v.1.15,2013-02-12 17:30:00,
2013-02-12 12:35:00,48.6,25.3,30.05,SW,229,0.0,0.0,40,0.00,,,0.00,Wunderground v.1.15,2013-02-12 17:35:00,
2013-02-12 12:45:00,48.4,25.8,30.04,West,270,0.0,0.0,41,0.00,,,0.00,Wunderground v.1.15,2013-02-12 17:45:00,
2013-02-12 12:50:00,48.2,24.4,30.04,ESE,117,0.0,2.0,39,0.00,,,0.00,Wunderground v.1.15,2013-02-12 17:50:00,
2013-02-12 12:55:00,47.9,24.7,30.04,SSW,201,0.0,2.0,40,0.00,,,0.00,Wunderground v.1.15,2013-02-12 17:55:00,
2013-02-12 13:00:00,47.8,24.6,30.05,West,265,0.0,0.0,40,0.00,,,0.00,Wunderground v.1.15,2013-02-12 18:00:00,
2013-02-12 13:05:00,47.7,22.7,30.04,West,280,0.0,0.0,37,0.00,,,0.00,Wunderground v.1.15,2013-02-12 18:05:00,
2013-02-12 13:10:00,47.7,22.7,30.04,West,278,0.0,0.0,37,0.00,,,0.00,Wunderground v.1.15,2013-02-12 18:10:00,
2013-02-12 13:15:00,47.7,22.7,30.04,ESE,108,0.0,0.0,37,0.00,,,0.00,Wunderground v.1.15,2013-02-12 18:15:00,
2013-02-12 13:20:00,47.8,23.4,30.04,WSW,242,0.0,0.0,38,0.00,,,0.00,Wunderground v.1.15,2013-02-12 18:20:00,
2013-02-12 13:25:00,48.0,21.6,30.04,SSW,211,0.0,0.0,35,0.00,,,0.00,Wunderground v.1.15,2013-02-12 18:25:00,
2013-02-12 13:35:00,48.2,23.1,30.02,SSW,203,0.0,0.0,37,0.00,,,0.00,Wunderground v.1.15,2013-02-12 18:35:00,
2013-02-12 13:40:00,48.2,23.7,30.02,East,99,0.0,0.0,38,0.00,,,0.00,Wunderground v.1.15,2013-02-12 18:40:00,
2013-02-12 13:45:00,48.1,23.7,30.02,SSE,149,0.0,0.0,38,0.00,,,0.00,Wunderground v.1.15,2013-02-12 18:45:00,
2013-02-12 13:50:00,48.3,23.2,30.03,SW,236,0.0,0.0,37,0.00,,,0.00,Wunderground v.1.15,2013-02-12 18:50:00,
2013-02-12 13:55:00,48.3,23.2,30.03,SW,231,0.0,0.0,37,0.00,,,0.00,Wunderground v.1.15,2013-02-12 18:55:00,
2013-02-12 14:00:00,48.4,22.6,30.02,SW,222,0.0,0.0,36,0.00,,,0.00,Wunderground v.1.15,2013-02-12 19:00:00,
2013-02-12 14:05:00,48.4,22.0,30.03,West,266,0.0,0.0,35,0.00,,,0.00,Wunderground v.1.15,2013-02-12 19:05:00,
2013-02-12 14:10:00,48.2,23.1,30.03,WSW,238,0.0,0.0,37,0.00,,,0.00,Wunderground v.1.15,2013-02-12 19:10:00,
2013-02-12 14:15:00,48.2,23.1,30.02,SW,220,0.0,0.0,37,0.00,,,0.00,Wunderground v.1.15,2013-02-12 19:15:00,
2013-02-12 14:20:00,48.3,24.5,30.01,SW,229,0.0,0.0,39,0.00,,,0.00,Wunderground v.1.15,2013-02-12 19:20:00,
2013-02-12 14:25:00,48.3,22.5,30.01,SW,228,0.0,0.0,36,0.00,,,0.00,Wunderground v.1.15,2013-02-12 19:25:00,
2013-02-12 14:30:00,48.3,24.5,30.01,SW,227,0.0,0.0,39,0.00,,,0.00,Wunderground v.1.15,2013-02-12 19:30:00,
2013-02-12 14:35:00,48.2,23.1,30.00,SW,231,0.0,0.0,37,0.00,,,0.00,Wunderground v.1.15,2013-02-12 19:35:00,
2013-02-12 14:40:00,48.2,23.1,30.01,WSW,246,0.0,0.0,37,0.00,,,0.00,Wunderground v.1.15,2013-02-12 19:40:00,
2013-02-12 14:45:00,48.1,22.4,30.01,SSW,203,0.0,0.0,36,0.00,,,0.00,Wunderground v.1.15,2013-02-12 19:45:00,
2013-02-12 14:50:00,48.0,22.9,30.00,SW,226,0.0,0.0,37,0.00,,,0.00,Wunderground v.1.15,2013-02-12 19:50:00,
2013-02-12 14:55:00,48.0,22.9,30.01,SW,225,0.0,0.0,37,0.00,,,0.00,Wunderground v.1.15,2013-02-12 19:55:00,
2013-02-12 15:00:00,48.0,24.2,30.01,SW,226,0.0,0.0,39,0.00,,,0.00,Wunderground v.1.15,2013-02-12 20:00:00,
2013-02-12 15:05:00,48.0,23.6,30.03,West,263,0.0,0.0,38,0.00,,,0.00,Wunderground v.1.15,2013-02-12 20:05:00,
2013-02-12 15:10:00,48.0,24.8,30.03,SW,232,0.0,0.0,40,0.00,,,0.00,Wunderground v.1.15,2013-02-12 20:10:00,
2013-02-12 15:15:00,48.0,24.8,30.03,SW,231,0.0,0.0,40,0.00,,,0.00,Wunderground v.1.15,2013-02-12 20:15:00,
2013-02-12 15:25:00,47.9,25.3,30.02,SW,231,0.0,0.0,41,0.00,,,0.00,Wunderground v.1.15,2013-02-12 20:25:00,
2013-02-12 15:30:00,47.9,27.6,30.01,SW,231,0.0,0.0,45,0.00,,,0.00,Wunderground v.1.15,2013-02-12 20:30:00,
2013-02-12 15:35:00,47.8,24.6,30.01,SW,232,0.0,0.0,40,0.00,,,0.00,Wunderground v.1.15,2013-02-12 20:35:00,
2013-02-12 15:40:00,47.7,26.8,30.01,SW,232,0.0,0.0,44,0.00,,,0.00,Wunderground v.1.15,2013-02-12 20:40:00,
2013-02-12 15:45:00,47.5,25.5,30.02,WSW,242,0.0,0.0,42,0.00,,,0.00,Wunderground v.1.15,2013-02-12 20:45:00,
2013-02-12 15:50:00,47.4,26.0,30.02,WSW,249,0.0,0.0,43,0.00,,,0.00,Wunderground v.1.15,2013-02-12 20:50:00,
2013-02-12 15:55:00,47.3,26.5,30.03,WSW,252,0.0,0.0,44,0.00,,,0.00,Wunderground v.1.15,2013-02-12 20:55:00,
2013-02-12 16:00:00,47.1,27.9,30.03,WSW,252,0.0,0.0,47,0.00,,,0.00,Wunderground v.1.15,2013-02-12 21:00:00,
2013-02-12 16:05:00,47.0,27.3,30.03,WSW,252,0.0,0.0,46,0.00,,,0.00,Wunderground v.1.15,2013-02-12 21:05:00,
2013-02-12 16:10:00,46.8,27.6,30.03,WSW,252,0.0,0.0,47,0.00,,,0.00,Wunderground v.1.15,2013-02-12 21:10:00,
2013-02-12 16:15:00,46.7,27.0,30.02,WSW,252,0.0,0.0,46,0.00,,,0.00,Wunderground v.1.15,2013-02-12 21:15:00,
2013-02-12 16:20:00,46.7,27.0,30.02,WSW,252,0.0,0.0,46,0.00,,,0.00,Wunderground v.1.15,2013-02-12 21:20:00,
2013-02-12 16:25:00,46.6,27.4,30.01,WSW,252,0.0,0.0,47,0.00,,,0.00,Wunderground v.1.15,2013-02-12 21:25:00,
2013-02-12 16:30:00,46.5,27.3,30.02,WSW,252,0.0,0.0,47,0.00,,,0.00,Wunderground v.1.15,2013-02-12 21:30:00,
2013-02-12 16:35:00,46.4,26.7,30.02,WSW,252,0.0,0.0,46,0.00,,,0.00,Wunderground v.1.15,2013-02-12 21:35:00,
2013-02-12 16:40:00,46.3,26.1,30.01,ENE,75,0.0,0.0,45,0.00,,,0.00,Wunderground v.1.15,2013-02-12 21:40:00,
2013-02-12 16:45:00,46.3,26.1,30.00,ENE,75,0.0,0.0,45,0.00,,,0.00,Wunderground v.1.15,2013-02-12 21:45:00,
2013-02-12 16:50:00,46.2,25.5,29.99,NNW,338,0.0,0.0,44,0.00,,,0.00,Wunderground v.1.15,2013-02-12 21:50:00,
2013-02-12 16:55:00,46.2,27.1,30.00,WNW,295,0.0,0.0,47,0.00,,,0.00,Wunderground v.1.15,2013-02-12 21:55:00,
2013-02-12 17:00:00,46.2,27.6,30.00,WNW,295,0.0,0.0,48,0.00,,,0.00,Wunderground v.1.15,2013-02-12 22:00:00,
2013-02-12 17:05:00,46.2,27.6,30.00,WNW,297,0.0,0.0,48,0.00,,,0.00,Wunderground v.1.15,2013-02-12 22:05:00,
2013-02-12 17:10:00,46.2,26.0,29.99,WNW,297,0.0,0.0,45,0.00,,,0.00,Wunderground v.1.15,2013-02-12 22:10:00,
2013-02-12 17:15:00,46.1,26.4,29.98,WNW,297,0.0,0.0,46,0.00,,,0.00,Wunderground v.1.15,2013-02-12 22:15:00,
2013-02-12 17:20:00,46.0,26.4,29.97,WNW,297,0.0,0.0,46,0.00,,,0.00,Wunderground v.1.15,2013-02-12 22:20:00,
2013-02-12 17:25:00,46.0,25.8,29.97,WNW,297,0.0,0.0,45,0.00,,,0.00,Wunderground v.1.15,2013-02-12 22:25:00,
2013-02-12 17:30:00,46.0,24.7,29.98,WNW,298,0.0,0.0,43,0.00,,,0.00,Wunderground v.1.15,2013-02-12 22:30:00,
2013-02-12 17:35:00,45.9,23.5,29.99,WNW,297,0.0,0.0,41,0.00,,,0.00,Wunderground v.1.15,2013-02-12 22:35:00,
2013-02-12 17:40:00,45.9,24.6,29.98,WNW,298,0.0,0.0,43,0.00,,,0.00,Wunderground v.1.15,2013-02-12 22:40:00,
2013-02-12 17:45:00,45.7,23.9,29.98,WNW,301,0.0,0.0,42,0.00,,,0.00,Wunderground v.1.15,2013-02-12 22:45:00,
2013-02-12 17:50:00,45.7,23.3,29.95,NW,318,0.0,0.0,41,0.00,,,0.00,Wunderground v.1.15,2013-02-12 22:50:00,
2013-02-12 17:55:00,45.6,23.2,29.93,NW,308,0.0,0.0,41,0.00,,,0.00,Wunderground v.1.15,2013-02-12 22:55:00,
2013-02-12 18:05:00,45.3,24.6,29.93,West,278,0.0,0.0,44,0.00,,,0.00,Wunderground v.1.15,2013-02-12 23:05:00,
2013-02-12 18:10:00,45.1,23.3,29.93,West,278,0.0,0.0,42,0.00,,,0.00,Wunderground v.1.15,2013-02-12 23:10:00,
2013-02-12 18:20:00,45.1,23.3,29.94,West,278,0.0,0.0,42,0.00,,,0.00,Wunderground v.1.15,2013-02-12 23:20:00,
2013-02-12 18:25:00,45.1,22.2,29.94,West,278,0.0,0.0,40,0.00,,,0.00,Wunderground v.1.15,2013-02-12 23:25:00,
2013-02-12 18:30:00,45.1,22.2,29.93,NNW,341,0.0,0.0,40,0.00,,,0.00,Wunderground v.1.15,2013-02-12 23:30:00,
2013-02-12 18:35:00,45.3,22.4,29.94,NE,54,0.0,0.0,40,0.00,,,0.00,Wunderground v.1.15,2013-02-12 23:35:00,
2013-02-12 18:40:00,45.3,21.8,29.93,NE,52,0.0,0.0,39,0.00,,,0.00,Wunderground v.1.15,2013-02-12 23:40:00,
2013-02-12 18:50:00,45.5,21.3,29.94,NE,52,0.0,0.0,38,0.00,,,0.00,Wunderground v.1.15,2013-02-12 23:50:00,
2013-02-12 18:55:00,45.6,21.4,29.95,NNW,332,0.0,0.0,38,0.00,,,0.00,Wunderground v.1.15,2013-02-12 23:55:00,
2013-02-12 19:00:00,45.8,21.6,29.95,NNW,332,0.0,0.0,38,0.00,,,0.00,Wunderground v.1.15,2013-02-13 00:00:00,
2013-02-12 19:05:00,45.8,23.4,29.96,NNW,332,0.0,0.0,41,0.00,,,0.00,Wunderground v.1.15,2013-02-13 00:05:00,
2013-02-12 19:15:00,44.8,28.2,29.98,NNW,332,0.0,0.0,52,0.00,,,0.00,Wunderground v.1.15,2013-02-13 00:15:00,
2013-02-12 19:25:00,43.7,28.6,29.98,NNW,333,0.0,0.0,55,0.00,,,0.00,Wunderground v.1.15,2013-02-13 00:25:00,
2013-02-12 19:30:00,43.3,28.2,29.98,NNW,333,0.0,0.0,55,0.00,,,0.00,Wunderground v.1.15,2013-02-13 00:30:00,
2013-02-12 19:35:00,42.7,29.8,29.99,NNW,331,0.0,0.0,60,0.00,,,0.00,Wunderground v.1.15,2013-02-13 00:35:00,
2013-02-12 19:40:00,42.0,29.1,29.98,NW,317,0.0,0.0,60,0.00,,,0.01,Wunderground v.1.15,2013-02-13 00:40:00,
2013-02-12 19:45:00,41.5,28.6,29.99,NW,321,0.0,0.0,60,0.00,,,0.01,Wunderground v.1.15,2013-02-13 00:45:00,
2013-02-12 19:50:00,41.3,28.9,29.99,North,4,0.0,0.0,61,0.00,,,0.01,Wunderground v.1.15,2013-02-13 00:50:00,
2013-02-12 19:55:00,40.9,30.0,29.99,North,356,0.0,0.0,65,0.04,,,0.02,Wunderground v.1.15,2013-02-13 00:55:00,
2013-02-12 20:00:00,40.4,31.0,30.00,North,357,0.0,0.0,69,0.04,,,0.02,Wunderground v.1.15,2013-02-13 01:00:00,
2013-02-12 20:05:00,40.1,31.4,29.99,North,350,0.0,0.0,71,0.04,,,0.02,Wunderground v.1.15,2013-02-13 01:05:00,
2013-02-12 20:10:00,39.5,32.2,29.99,North,350,0.0,0.0,75,0.04,,,0.03,Wunderground v.1.15,2013-02-13 01:10:00,
2013-02-12 20:20:00,38.9,32.6,29.98,NNW,340,0.0,0.0,78,0.07,,,0.04,Wunderground v.1.15,2013-02-13 01:20:00,
2013-02-12 20:30:00,38.4,33.1,29.98,NNW,335,0.0,0.0,81,0.12,,,0.06,Wunderground v.1.15,2013-02-13 01:30:00,
2013-02-12 20:35:00,38.0,33.9,29.96,NNW,339,0.0,0.0,85,0.08,,,0.06,Wunderground v.1.15,2013-02-13 01:35:00,
2013-02-12 20:40:00,37.6,34.1,29.99,WNW,293,0.0,0.0,87,0.06,,,0.07,Wunderground v.1.15,2013-02-13 01:40:00,
2013-02-12 20:45:00,37.4,34.2,30.00,WNW,293,0.0,0.0,88,0.06,,,0.07,Wunderground v.1.15,2013-02-13 01:45:00,
2013-02-12 20:50:00,37.3,34.4,30.00,WNW,293,0.0,0.0,89,0.04,,,0.07,Wunderground v.1.15,2013-02-13 01:50:00,
2013-02-12 20:55:00,37.1,34.2,30.00,WNW,293,0.0,0.0,89,0.00,,,0.07,Wunderground v.1.15,2013-02-13 01:55:00,
2013-02-12 21:05:00,37.0,34.6,30.00,WNW,290,0.0,0.0,91,0.00,,,0.07,Wunderground v.1.15,2013-02-13 02:05:00,
2013-02-12 21:10:00,37.0,34.9,30.00,WNW,292,0.0,0.0,92,0.00,,,0.08,Wunderground v.1.15,2013-02-13 02:10:00,
2013-02-12 21:20:00,37.1,35.0,29.99,WNW,293,0.0,0.0,92,0.00,,,0.08,Wunderground v.1.15,2013-02-13 02:20:00,
2013-02-12 21:25:00,37.1,35.0,29.97,WNW,301,0.0,0.0,92,0.00,,,0.08,Wunderground v.1.15,2013-02-13 02:25:00,
2013-02-12 21:30:00,37.2,35.1,29.98,WNW,298,0.0,0.0,92,0.00,,,0.08,Wunderground v.1.15,2013-02-13 02:30:00,
2013-02-12 21:35:00,37.2,35.1,29.98,ENE,72,0.0,0.0,92,0.00,,,0.08,Wunderground v.1.15,2013-02-13 02:35:00,
2013-02-12 21:40:00,37.1,35.0,29.97,ENE,72,0.0,0.0,92,0.00,,,0.08,Wunderground v.1.15,2013-02-13 02:40:00,
2013-02-12 21:50:00,37.1,35.0,29.97,ESE,115,0.0,0.0,92,0.00,,,0.08,Wunderground v.1.15,2013-02-13 02:50:00,
2013-02-12 22:00:00,37.1,35.0,29.98,ESE,115,0.0,0.0,92,0.00,,,0.08,Wunderground v.1.15,2013-02-13 03:00:00,
2013-02-12 22:05:00,37.2,34.5,29.98,NNW,343,0.0,0.0,90,0.00,,,0.08,Wunderground v.1.15,2013-02-13 03:05:00,
2013-02-12 22:10:00,37.5,34.3,29.97,NW,320,0.0,0.0,88,0.00,,,0.08,Wunderground v.1.15,2013-02-13 03:10:00,
2013-02-12 22:15:00,37.8,34.8,29.97,NW,317,0.0,0.0,89,0.00,,,0.09,Wunderground v.1.15,2013-02-13 03:15:00,
2013-02-12 22:20:00,37.8,34.8,29.96,NW,317,0.0,0.0,89,0.00,,,0.09,Wunderground v.1.15,2013-02-13 03:20:00,
2013-02-12 22:25:00,37.8,35.1,29.96,East,80,0.0,0.0,90,0.00,,,0.09,Wunderground v.1.15,2013-02-13 03:25:00,
2013-02-12 22:30:00,37.7,35.3,29.96,East,81,0.0,0.0,91,0.00,,,0.09,Wunderground v.1.15,2013-02-13 03:30:00,
2013-02-12 22:35:00,37.6,34.9,29.96,ENE,70,0.0,0.0,90,0.00,,,0.09,Wunderground v.1.15,2013-02-13 03:35:00,
2013-02-12 22:40:00,37.6,34.9,29.94,East,91,0.0,0.0,90,0.00,,,0.10,Wunderground v.1.15,2013-02-13 03:40:00,
2013-02-12 22:45:00,37.7,34.8,29.95,South,186,0.0,0.0,89,0.00,,,0.10,Wunderground v.1.15,2013-02-13 03:45:00,
2013-02-12 22:50:00,37.8,34.6,29.94,East,98,0.0,0.0,88,0.00,,,0.10,Wunderground v.1.15,2013-02-13 03:50:00,
2013-02-12 22:55:00,37.9,34.7,29.94,SE,146,0.0,0.0,88,0.00,,,0.10,Wunderground v.1.15,2013-02-13 03:55:00,
2013-02-12 23:00:00,37.9,34.7,29.93,East,90,0.0,0.0,88,0.00,,,0.10,Wunderground v.1.15,2013-02-13 04:00:00,
2013-02-12 23:05:00,37.9,34.7,29.92,WSW,256,0.0,0.0,88,0.00,,,0.10,Wunderground v.1.15,2013-02-13 04:05:00,
2013-02-12 23:10:00,37.9,34.7,29.92,South,174,0.0,0.0,88,0.00,,,0.10,Wunderground v.1.15,2013-02-13 04:10:00,
2013-02-12 23:15:00,37.9,34.4,29.92,WNW,284,0.0,0.0,87,0.00,,,0.10,Wunderground v.1.15,2013-02-13 04:15:00,
2013-02-12 23:20:00,38.1,34.6,29.93,WNW,293,0.0,0.0,87,0.00,,,0.10,Wunderground v.1.15,2013-02-13 04:20:00,
2013-02-12 23:25:00,38.1,34.9,29.91,ESE,110,0.0,0.0,88,0.00,,,0.11,Wunderground v.1.15,2013-02-13 04:25:00,
2013-02-12 23:30:00,37.9,34.7,29.92,SSW,205,0.0,2.0,88,0.00,,,0.11,Wunderground v.1.15,2013-02-13 04:30:00,
2013-02-12 23:35:00,38.1,34.9,29.92,East,86,0.0,2.0,88,0.00,,,0.11,Wunderground v.1.15,2013-02-13 04:35:00,
2013-02-12 23:40:00,37.9,34.9,29.92,South,190,0.0,0.0,89,0.05,,,0.12,Wunderground v.1.15,2013-02-13 04:40:00,
2013-02-12 23:50:00,37.8,34.8,29.94,SE,138,1.0,1.0,89,0.05,,,0.12,Wunderground v.1.15,2013-02-13 04:50:00,
2013-02-12 23:55:00,37.7,34.8,29.94,ESE,117,0.0,1.0,89,0.04,,,0.13,Wunderground v.1.15,2013-02-13 04:55:00,